Flag for Germany Weather past 2 weeks in Gaggenau, Baden-Württemberg, Germany

Now
57 °F

Broken clouds.


Feels Like: 56 °F
Forecast: 41 / 65 °F
Wind: 7 mph from Northeast

Location: Karlsruhe - Baden Wurttemberg

Current Time: May 26, 2015 at 6:36:21 PM

Latest Report: May 26, 2015 at 6:20 PM


Visibility: N/A

Pressure: 30.12 "Hg

Humidity: 55%

Dew point: 41 °F

Location of GaggenauLocation

Historic Weather in Gaggenau — Graph

°F

Gaggenau temperature yesterday

Maximum temperature yesterday: 70 °F (at 2:20 PM)
Minimum temperature yesterday: 55 °F (at 5:20 AM)
Average temperature yesterday: 61 °F

Past Weeks' High & Low Weather Summary

 TemperatureHumidityPressure
High84 °F (May 12, 2:20 PM)94% (May 12, 6:50 AM)30.33 "Hg (May 12, 6:50 AM)
Low39 °F (May 22, 4:50 AM)26% (May 22, 4:50 PM)29.71 "Hg (May 18, 7:50 PM)
Average60 °F61%30.05 "Hg
* Reported May 11 5:20 PM — May 26 5:20 PM, Gaggenau, Weather by CustomWeather, © 2015

Note: Actual official high and low records may vary slightly from our data, if they occured in-between our weather recording intervals... More about our weather records

Advertising

Gaggenau weather history for previous 24 hours

 ConditionsComfort  
Time TempWeatherWind HumidityBarometerVisibility
5:20 PM
Tue, May 26
59 °FBroken clouds.7 mph51%30.12 "HgN/A
4:50 PM59 °FBroken clouds.3 mph48%30.09 "HgN/A
4:20 PM59 °FBroken clouds.7 mph51%30.09 "HgN/A
3:50 PM61 °FPartly sunny.5 mph48%30.09 "HgN/A
3:20 PM61 °FBroken clouds.5 mph48%30.09 "HgN/A
2:50 PM57 °FPartly sunny.5 mph59%30.09 "HgN/A
2:20 PM57 °FBroken clouds.6 mph59%30.09 "HgN/A
1:50 PM57 °FBroken clouds.7 mph59%30.09 "HgN/A
1:20 PM59 °FBroken clouds.8 mph55%30.09 "HgN/A
12:50 PM57 °FBroken clouds.8 mph63%30.09 "HgN/A
12:20 PM57 °FBroken clouds.7 mph63%30.09 "HgN/A
11:50 AM55 °FBroken clouds.9 mph67%30.09 "HgN/A
11:20 AM55 °FBroken clouds.8 mph67%30.09 "HgN/A
10:50 AM54 °FPartly sunny.8 mph72%30.07 "Hg6 mi
10:20 AM54 °FBroken clouds.7 mph77%30.07 "HgN/A
9:50 AM52 °FBroken clouds.7 mph77%30.07 "HgN/A
9:20 AM52 °FBroken clouds.8 mph82%30.07 "HgN/A
8:50 AM52 °FPartly sunny.9 mph77%30.04 "HgN/A
8:20 AM52 °FBroken clouds.9 mph77%30.04 "HgN/A
7:50 AM54 °FBroken clouds.9 mph77%30.04 "HgN/A
7:20 AM54 °FBroken clouds.5 mph82%30.01 "HgN/A
6:50 AM52 °FScattered clouds.5 mph88%30.01 "HgN/A
6:20 AM54 °FPassing clouds.3 mph82%30.01 "Hg6 mi
5:50 AM54 °FOvercast.3 mph82%30.01 "Hg5 mi
5:20 AM54 °FOvercast.3 mph82%29.98 "Hg5 mi
4:50 AM54 °FPassing clouds.2 mph82%29.98 "Hg6 mi
11:20 PM
Mon, May 25
55 °FClear.1 mph88%29.98 "Hg10 mi
10:20 PM55 °FScattered showers. Partly cloudy.1 mph88%29.98 "HgN/A
9:50 PM55 °FScattered showers. Broken clouds.3 mph88%29.98 "HgN/A
9:20 PM55 °FScattered showers. Broken clouds.3 mph88%29.95 "HgN/A
8:50 PM57 °FScattered showers. Broken clouds.3 mph82%29.95 "HgN/A
8:20 PM57 °FScattered showers. Broken clouds.6 mph77%29.95 "HgN/A
7:50 PM55 °FScattered showers. Broken clouds.7 mph88%29.95 "HgN/A
7:20 PM59 °FSprinkles. Broken clouds.3 mph77%29.95 "HgN/A
6:50 PM59 °FScattered showers. Broken clouds.1 mph77%29.95 "HgN/A
6:20 PM59 °FScattered showers. Broken clouds.2 mph77%29.95 "HgN/A
Weather by CustomWeather, © 2015

See weather overviewHow to use our weather pages